Grizzly Air Cargo 5125


CYEG
Edmonton International Airport
Edmonton, CA
PANC
Ted Stevens Anchorage International Airport
Anchorage, US

Activity Log

Date Flight Route Aircraft Duration
12/30/2019 GRZ5125 ZU YQU NCA10 YAK J501 JOH B738 3h 48m

Route Details

Aircraft Information
Primary: Boeing 737-800BCF
Backup: Boeing 727-200F
Route Data
Distance: 1258nm
Sched. Duration: 3h 29m
Avg. Duration: 3h 48m (+18m)
Times Flown: 1
Recm'd Route: NUBEG NCA11 REMBY PTERS3
Planned Altitude: 37,000ft
Origin Wx: CYEG 290300Z 10012KT 20SM FEW080 BKN100 BKN220 16/02 A3017 RMK AS2AC5CI1 CI TR SLP229 DENSITY ALT 2800FT
Dest. Wx: PANC 290253Z 24008KT 10SM FEW060 SCT090 BKN130 BKN200 22/04 A2995 RMK AO2 SLP141 VIRGA N-E T02170039 56013
Notes:

Financial History
Total Freight: 22,176lbs
Average Load: 22,176lbs/flt
Fuel Used: 16,333lbs
Avg. Fuel Used: 16,333lbs/flt
Fuel Expense: $3,430
Avg. Fuel Expense: $3,430
Avg. Fuel Cost: $0.21/lbs
Total Gross Income: $34,595
Pilot Pay: $69
Total Expenses: $3,788
Total Revenue: $27,000
Average Revenue: $34,594.56